Погода в Вревском

Россия / Ставропольский край     44°41′59″N   41°31′53″E
темп.,
°C
ветер,
м/с
пор.,
м/с
влажн.,
%
обл.,
%
осадки,
мм/ч
давл.,
гПа
погр.,
м
7 марта, вс
вс700:00−1сз61098100 1.1 1019612
03:00−2сз71096100 4.6 1022659
06:00−5з239399 0.6 102577
09:00−3зюз238950 0.6 1025240
12:00−1з11690 0.0 1025719
15:00−1з11590 0.0 1023803
18:00−3зюз12720 0.0 102325
21:00−5ююз23710 0.0 102356
8 марта, пн
пн800:00−5зюз22757 0.0 102362
03:00−5юз23763 0.0 102278
06:00−5ю23740 0.0 102174
09:00−2ююз126514 0.0 1020188
12:00+1з34668 0.0 1018682
15:00+2зюз34694 0.0 1017770
18:00−1ююз347827 0.0 101790
21:00−1юз368063 0.0 1018127
9 марта, вт
вт900:00−2ююз238263 0.0 101836
03:00−2ю228057 0.0 101728
06:00−2зюз238176 0.0 101745
09:000з237479 0.0 1017253
12:00+2зюз587030 0.0 1017932
15:00+2зсз8148365 0.4 10171088
18:00+1зсз71387100 0.1 1019709
21:000зсз61084100 0.2 1022662
10 марта, ср
ср1000:00−2зсз4880100 0.0 1023603
03:00−3з3678100 0.0 1024516
06:00−3зюз358085 0.0 1024413
09:00−2зюз337279 0.0 1024615
12:000сз235899 0.0 10231099
15:00+1ссв3360100 0.0 1021973
18:00−1всв3567100 0.0 1021324
21:00−1в5963100 0.0 1021586
11 марта, чт
чт1100:00−3в71191100 0.3 1020621
03:00−4в81387100 0.9 1019731
06:00−5в91486100 0.4 1019826
09:00−5в101583100 1.0 1019943
12:00−5в101581100 0.6 10191063
15:00−6в101479100 1.1 10191016
18:00−7в91483100 0.5 1021950
21:00−8в91382100 0.9 1023912